Location: Occidental Observatory
(38.4214°N, 122.9202°W)
Time: 20:39:33
(UTC-07:00)

Daily predictions for brighter satellites

Satellite Brightness Start Highest point End
(mag) Time Altitude Azimuth Time Altitude Azimuth Time Altitude Azimuth
Cosmos 1655 Rocket 4.5 21:01:44 10° SSW 21:07:52 67° W 21:14:05 10° N
Cosmos 2219 4.0 21:04:08 10° SSE 21:09:04 31° ESE 21:14:01 10° NE
deb Chang Zheng 4 4.0 21:05:35 10° NNE 21:09:44 43° E 21:13:52 10° S
Cosmos 2151 3.8 21:13:19 10° SSE 21:17:02 31° E 21:20:46 10° NNE
Cosmos 2322 4.2 21:13:50 10° NNW 21:19:22 48° ENE 21:24:52 10° SE
USA 186 3.1 21:17:43 10° SSW 21:19:38 25° W 21:21:38 10° NW
Cosmos 2322 Rocket 2.8 21:14:22 10° NNW 21:19:52 57° WSW 21:25:20 10° S
Cosmos 1515 Rocket 3.6 21:16:28 10° N 21:20:55 80° E 21:25:18 10° S
Cosmos 1777 Rocket 4.1 21:17:16 10° SSW 21:22:32 84° WNW 21:27:49 10° NNE
Cosmos 2360 Rocket 2.4 21:23:10 10° NNW 21:28:45 59° ENE 21:34:09 11° SE
Cosmos 1908 3.3 21:26:23 10° N 21:30:16 64° E 21:34:09 10° SSE
Nimbus 7 Rocket 4.4 21:25:27 10° NNE 21:31:14 60° ESE 21:37:01 10° S
SL-16 R/B 3.1 21:26:00 10° NNW 21:31:27 49° WSW 21:36:52 10° S
Cosmos 2058 3.9 21:28:18 10° SSE 21:31:46 27° E 21:35:15 10° NNE
NOSS 3-1 (C) 3.7 21:26:23 10° S 21:31:46 42° ESE 21:37:38 10° NE
DELTA 2 R/B (1) 3.6 21:28:06 10° WNW 21:33:40 77° SSW 21:38:52 12° ESE
Cosmos 405 3.0 21:32:51 10° N 21:36:29 70° E 21:39:59 11° SSE
Cosmos 1674 2.6 21:32:41 10° S 21:36:30 83° E 21:40:23 10° N
OAO 2 Rocket 4.1 21:32:08 10° SW 21:36:51 33° SSE 21:41:35 10° E
Cosmos 1151 Rocket 3.0 21:33:10 10° N 21:37:29 69° E 21:41:47 10° SSE
OTV 4 2.6 21:40:44 10° S 21:41:17 12° S 21:41:17 12° S
Meteor 2-20 Rocket 4.4 21:36:32 10° S 21:42:41 81° E 21:48:50 10° N
Tiangong 1 1.1 21:42:25 10° SW 21:45:27 53° SSE 21:48:29 10° ENE
ALOS 4.4 21:41:43 10° SSW 21:45:32 25° W 21:49:24 10° NW
Cosmos 1805 Rocket 4.1 21:43:27 11° SSE 21:47:26 42° E 21:51:38 10° NNE
YAOGAN 6 3.5 21:47:15 18° SE 21:49:26 33° ENE 21:52:43 10° N
Cosmos 1300 3.7 21:47:28 10° NNE 21:50:56 31° ENE 21:52:56 19° SE
H-2A R/B 3.9 21:48:41 11° ESE 21:51:55 18° ENE 21:55:24 10° NNE
CZ-4B R/B 4.0 21:47:29 10° NNE 21:52:29 43° E 21:56:59 12° SSE
Cosmos 2266 Rocket 4.2 21:47:25 10° S 21:53:44 79° W 21:59:58 10° N
Cosmos 2227 Rocket 3.6 21:53:14 16° ESE 21:54:55 18° E 21:58:37 10° ENE
Cosmos 1680 Rocket 3.5 21:50:16 10° NNW 21:55:33 86° ENE 21:59:52 16° SSE
Cosmos 923 Rocket 4.3 21:55:00 10° NNW 22:00:09 64° WSW 22:04:50 12° S
Cosmos 1939 Rocket 3.6 21:57:41 10° S 22:01:30 49° W 22:05:18 10° NNW
Cosmos 2315 Rocket 4.0 21:55:27 10° N 22:01:39 71° E 22:06:50 15° SSE
SPOT 1/Viking Rocket 3.9 22:00:26 19° SE 22:03:54 50° ENE 22:08:52 10° N
H-2A R/B 3.0 21:59:52 10° S 22:04:15 48° W 22:08:38 10° NNW
Cosmos 1437 Rocket 4.3 22:01:06 10° NNW 22:04:32 32° W 22:08:00 10° SSW
Cosmos 1898 Rocket 3.7 22:02:06 11° S 22:06:55 49° ESE 22:11:56 10° NNE
PSLV R/B 3.2 22:05:23 23° S 22:07:11 78° W 22:10:15 10° NNW
Cosmos 1707 Rocket 3.7 22:03:23 10° N 22:07:40 54° E 22:10:06 24° SSE
Cosmos 2333 Rocket 3.7 22:05:15 10° N 22:09:57 25° NE 22:13:18 15° E
Cosmos 1666 Rocket 3.7 22:07:02 19° SSE 22:09:58 54° E 22:14:18 10° NNE
Cosmos 1455 4.3 22:11:24 10° NE 22:13:19 13° ENE 22:13:51 13° E
Cosmos 2150 Rocket 4.1 22:09:12 10° S 22:14:32 61° ESE 22:19:56 10° NNE
SPOT 5 3.1 22:11:50 16° S 22:15:29 65° WSW 22:20:16 10° NNW
Cosmos 1244 Rocket 4.5 22:11:24 10° S 22:17:42 78° E 22:23:59 10° N
MetOp-A 4.2 22:14:39 18° S 22:18:45 81° WSW 22:24:08 10° NNW
Meteor 2-11 Rocket 4.4 22:14:42 10° N 22:20:51 72° E 22:24:52 23° SSE
Cosmos 2297 Rocket 3.4 22:21:13 21° ESE 22:21:50 21° E 22:26:00 10° NE
COSMOS 2428 2.7 22:16:18 10° NNW 22:22:01 79° ENE 22:25:19 26° SSE
Cosmos 1470 Rocket 4.5 22:22:49 27° ESE 22:23:38 29° E 22:27:22 10° NNE
CZ-3A R/B 4.1 22:02:55 10° WSW 22:25:18 33° SSW 22:28:14 24° SSE
ARGOS 3.2 22:22:33 25° SSE 22:25:41 68° ENE 22:31:04 10° N
Cosmos 2219 Rocket 2.7 22:24:19 10° N 22:29:41 45° ENE 22:32:19 27° ESE
Cosmos 1726 2.0 22:27:42 10° N 22:31:31 82° E 22:32:47 40° SSE
Cosmos 1745 Rocket 4.1 22:31:50 26° SSE 22:35:20 56° E 22:41:22 10° NNE
NOSS 3-1 (A) 3.4 22:29:49 10° SSW 22:35:40 85° WNW 22:42:09 10° NNE
CZ-4C R/B 3.5 22:35:43 41° E 22:36:12 44° ENE 22:39:31 10° N
ERBS 3.8 22:38:38 25° ENE 22:38:38 25° ENE 22:40:24 10° NE
Cosmos 2237 4.4 22:37:53 10° NNW 22:43:34 65° WSW 22:46:33 28° S
Cosmos 292 Rocket 3.7 22:41:33 10° NNW 22:46:18 72° ENE 22:47:50 42° SE
Landsat 7 3.9 22:44:50 39° SE 22:46:27 65° ENE 22:51:10 10° N
Delta 2 Rocket 3.3 22:43:10 10° W 22:46:07 45° SW 22:46:07 45° SW
NOSS 0 Rocket 4.2 22:40:34 10° NNW 22:46:38 57° ENE 22:49:19 32° SE
USA 32 4.0 22:42:42 10° N 22:47:59 82° E 22:50:14 35° S
Cosmos 1346 4.4 22:49:27 30° NE 22:49:27 30° NE 22:51:23 10° NNE
Cosmos 1980 4.2 22:43:27 10° N 22:48:54 46° ENE 22:51:01 32° ESE
Cosmos 1271 Rocket 2.6 22:45:57 10° N 22:49:48 85° ENE 22:50:33 57° SSE
Cosmos 1703 3.2 22:52:05 47° SSW 22:53:09 83° W 22:57:04 10° N
SL-14 R/B 4.4 22:50:58 18° SW 22:53:30 42° W 22:57:19 10° N
Meteor 1-4 Rocket 2.6 22:49:53 10° NNW 22:53:38 76° W 22:54:14 59° SSW
ATLAS 2AS CENTAUR R/B 3.0 22:52:53 21° S 22:57:55 57° ESE 23:05:41 10° NE
Iridium 2 3.6 22:57:23 60° S 22:58:02 85° W 23:01:54 10° N
Cosmos 1386 Rocket 4.4 22:57:20 37° SSE 22:59:41 64° E 23:05:37 10° NNE
Cosmos 2242 Rocket 3.8 22:55:50 10° NNW 23:00:17 66° W 23:01:45 40° SSW
Cosmos 2237 Rocket 2.5 22:55:53 10° NNW 23:01:30 54° ENE 23:03:21 38° ESE
Cosmos 2333 4.5 22:56:08 10° NNW 23:01:47 62° WSW 23:04:09 35° S
Terra 1.9 23:01:11 48° SE 23:02:18 65° ENE 23:07:02 10° N
Meteor 2-10 4.2 22:57:11 10° N 23:02:56 90° W 23:05:09 40° S
Cosmos 2082 3.6 23:01:36 34° S 23:04:11 72° ESE 23:09:54 10° NNE
Lacrosse 4 Rocket 3.5 23:01:44 10° N 23:04:51 18° NE 23:06:05 17° ENE
Cosmos 1937 Rocket 3.8 23:01:34 17° SSW 23:05:33 65° WNW 23:10:44 10° NNE
Sich 1 4.3 23:02:40 17° SW 23:05:40 38° WNW 23:09:48 10° N
CARTOSAT-1 3.5 23:05:24 61° SE 23:06:04 75° ENE 23:10:23 10° N
Cosmos 1862 Rocket 3.5 23:02:10 10° N 23:06:28 62° E 23:06:52 58° ESE
Spot 4 4.1 23:05:42 46° ESE 23:06:42 56° ENE 23:11:27 10° N
Cosmos 1633 Rocket 4.4 23:06:45 18° SW 23:09:33 36° WNW 23:13:37 10° N
Cosmos 1626 2.0 23:10:25 77° ENE 23:10:25 77° ENE 23:14:04 10° N
Cosmos 2360 Rocket 4.4 23:08:37 10° WNW 23:12:11 17° W 23:15:44 10° SW
ATLAS 3B R/B 3.6 23:08:42 10° NNW 23:15:14 40° NE 23:18:28 25° E
Cosmos 990 Rocket 4.1 23:13:44 31° SSW 23:16:12 74° WNW 23:21:22 10° NNE
OAO 2 Rocket 3.4 23:16:06 10° WSW 23:21:19 58° S 23:21:19 58° S
Tiangong 1 2.6 23:19:08 10° W 23:21:28 36° NW 23:21:28 36° NW
FALCON 9 R/B 3.6 23:02:21 10° W 23:26:23 72° S 23:30:02 33° ESE
H-2A R/B 2.4 23:29:19 44° SSW 23:30:45 60° W 23:36:08 10° NNW
Cosmos 1933 4.1 23:27:20 10° N 23:30:44 43° NE 23:30:44 43° NE
Cosmos 1869 Rocket 4.4 23:33:33 39° ENE 23:33:33 39° ENE 23:37:08 10° NNE
Cosmos 1269 Rocket 4.3 23:28:59 10° N 23:34:11 53° ENE 23:34:54 49° E
COSMOS 2455 3.3 23:29:00 10° NNW 23:34:51 50° ENE 23:36:29 40° ESE
Cosmos 2227 Rocket 2.7 23:34:58 23° SW 23:38:25 57° WNW 23:44:00 10° NNE
IGS 5A 4.1 23:42:08 46° W 23:42:10 46° W 23:46:12 10° NNW
CZ-4B R/B 4.3 23:44:29 10° NE 23:44:29 10° NE 23:44:35 10° NE
ALOS 2 4.4 23:46:38 20° ENE 23:46:38 20° ENE 23:49:47 10° NNE
Cosmos 192 4.3 23:43:43 10° NNW 23:48:37 69° WSW 23:48:49 68° SW
Cosmos 1455 3.5 23:45:42 10° NNW 23:48:54 34° W 23:48:54 34° W
SeaSat 1 3.3 23:49:07 37° ENE 23:49:50 39° ENE 23:54:24 10° N
Cosmos 2333 Rocket 2.7 23:48:56 10° NW 23:54:25 47° WSW 23:55:18 43° SW
